Torna al catalogo

STARLINK-5070

AttivoComunicazioniVLEO
NORAD 55654·PAYLOAD·🇺🇸 United States

Lanciato Feb 17, 2023 da Vandenberg Space Force Base

Loading…

Prossimi Passaggi (prossime 24 ore)

TLE

AggiornatoSource: CelesTrak SupGP

Epoca: Sep 14, 2026, 20:57 UTC

1 55654C 23021AC  26257.87340278  .00034754  00000+0  29139-2 0  2579
2 55654  70.0010  67.6177 0002792 269.4648 149.6455 14.98295303    17

Traccia STARLINK-5070 in tempo reale con AllMySat

Download on the App Store